2023-126B (57694 NORAD) Tracking and Keplerian Element Data

This shows tracking and keplerian element data for the satellite.

Feedback or suggestion? Click here.




ElementValue
Catalog57694
Name2023-126B
Epoch Orbit43
Epoch Day238.93850689
Epoch Year2023
RAAN277.3375
Inclination53.0123
Eccentricity0.0008785
Argument of Perigee287.9836
Mean Anonmoly126.8853
Mean Motion14.75465814
Decay Rate2.463E-05
L11 57694U 23126B 23238.93850689 .00002463 00000+0 38997-3 0 9994
L22 57694 53.0123 277.3375 0008785 287.9836 126.8853 14.75465814 437



Live tracking and technical data element details for 2023-126B (NORAD 57694). 2023-126B can be tracked NOW for your location showing map with azimuth and elevation plus other details from your city location.







IsCatalogInMostPopularTable: catalog: 57694, numindb: 27
Update: records affected: 1



GetName: 57694 2023-126B

Hit Count: updated at: Mon, 04 Dec 2023 02:50:27 GMT